Date String (YYYY-MM-DD hh:mm:ss) UTC,Instrument flags,Ambient pressure (hPa),Sample flow (lpm),Bypass flow (lpm),Sample temperature (°C),Ambient temperature (°C),ASC tube jacket temperature (°C),LED temperature (°C),Box temperature (°C),Sample RH (%),Span deviation,Mass concentration (μg/m³),Mass concentration (μg/m³),Mass concentration (μg/m³)
DateTimeUTC,F1_M11,P_M11,Q1_M11,Q2_M11,T1_M11,T2_M11,T3_M11,T4_M11,T5_M11,U1_M11,ZSPAN_M11,X0_M11,X2_M11,X1_M11
2022-08-20 04:00:00,,0829.2,4.99,0.00,30.1,28.2,00.0,38.8,31.8,26.5,0000.0,0022.33,0007.52,0006.07
2022-08-20 04:01:00,,0829.3,5.01,0.00,30.0,27.6,00.0,38.7,31.6,26.6,0000.0,0022.62,0007.61,0006.09
2022-08-20 04:02:00,,0829.2,5.00,0.00,29.9,27.5,00.0,38.7,31.6,26.7,0000.0,0022.11,0007.62,0006.10
2022-08-20 04:03:00,,0829.2,5.00,0.00,29.8,27.5,00.0,38.7,31.5,26.7,0000.0,0023.09,0007.60,0006.10
2022-08-20 04:04:00,,0829.2,4.99,0.00,29.8,27.7,00.0,38.6,31.5,26.9,0000.0,0024.34,0007.56,0006.09
2022-08-20 04:05:00,,0829.2,5.01,0.00,29.8,27.8,00.0,38.6,31.6,26.9,0000.0,0024.55,0007.53,0006.10
2022-08-20 04:06:00,,0829.2,5.00,0.00,29.8,28.0,00.0,38.6,31.6,27.0,0000.0,0024.64,0007.53,0006.09
2022-08-20 04:07:00,,0829.2,4.99,0.00,29.8,28.2,00.0,38.6,31.7,27.1,0000.0,0024.89,0007.57,0006.09
2022-08-20 04:08:00,,0829.3,5.01,0.00,29.8,28.3,00.0,38.6,31.7,26.9,0000.0,0024.55,0007.59,0006.09
2022-08-20 04:09:00,,0829.2,5.00,0.00,29.8,28.5,00.0,38.6,31.7,26.9,0000.0,0022.14,0007.59,0006.09
2022-08-20 04:10:00,,0829.3,5.00,0.00,29.9,28.6,00.0,38.6,31.8,27.0,0000.0,0020.09,0007.60,0006.08
2022-08-20 04:11:00,,0829.3,4.99,0.00,29.9,28.7,00.0,38.7,31.9,26.9,0000.0,0020.77,0007.60,0006.07
2022-08-20 04:12:00,,0829.3,5.02,0.00,29.9,28.8,00.0,38.7,31.9,26.7,0000.0,0020.48,0007.51,0006.05
2022-08-20 04:13:00,,0829.2,4.99,0.00,30.0,28.9,00.0,38.7,31.9,26.7,0000.0,0020.32,0007.50,0006.04
2022-08-20 04:14:00,,0829.2,5.00,0.00,30.0,29.0,00.0,38.7,32.0,26.9,0000.0,0020.12,0007.53,0006.04
2022-08-20 04:15:00,,0829.2,5.00,0.00,30.0,29.1,00.0,38.7,32.0,26.8,0000.0,0019.14,0007.59,0006.04
2022-08-20 04:16:00,,0829.2,5.01,0.00,30.1,29.1,00.0,38.8,32.0,26.8,0000.0,0018.90,0007.64,0006.06
2022-08-20 04:17:00,,0829.3,5.00,0.00,30.1,29.0,00.0,38.8,32.0,27.1,0000.0,0019.32,0007.66,0006.06
2022-08-20 04:18:00,,0829.2,5.00,0.00,30.0,28.2,00.0,38.7,31.7,26.6,0000.0,0019.42,0007.69,0006.07
2022-08-20 04:19:00,,0829.2,4.99,0.00,29.9,27.5,00.0,38.7,31.6,27.4,0000.0,0019.66,0007.68,0006.08
2022-08-20 04:20:00,,0829.2,5.00,0.00,29.9,27.3,00.0,38.7,31.5,28.0,0000.0,0019.87,0007.70,0006.09
2022-08-20 04:21:00,,0829.2,5.00,0.00,29.8,27.4,00.0,38.6,31.4,30.0,0000.0,0019.79,0007.74,0006.10
2022-08-20 04:22:00,,0829.3,5.01,0.00,29.7,27.5,00.0,38.6,31.4,30.8,0000.0,0018.02,0007.74,0006.12
2022-08-20 04:23:00,,0829.2,5.01,0.00,29.7,27.7,00.0,38.6,31.5,31.7,0000.0,0017.76,0007.88,0006.15
2022-08-20 04:24:00,,0829.2,4.99,0.00,29.7,27.9,00.0,38.6,31.5,31.8,0000.0,0017.89,0007.94,0006.18
2022-08-20 04:25:00,,0829.2,5.02,0.00,29.7,28.0,00.0,38.6,31.6,32.1,0000.0,0017.21,0007.90,0006.20
2022-08-20 04:26:00,,0829.2,4.99,0.00,29.7,28.2,00.0,38.6,31.6,32.7,0000.0,0016.61,0007.89,0006.23
2022-08-20 04:27:00,,0829.3,5.00,0.00,29.8,28.3,00.0,38.6,31.6,32.8,0000.0,0016.40,0007.88,0006.25
2022-08-20 04:28:00,,0829.3,5.00,0.00,29.8,28.4,00.0,38.6,31.7,31.9,0000.8,0015.84,0007.88,0006.27
2022-08-20 04:29:00,,0829.2,5.01,0.00,29.8,28.5,00.0,38.6,31.7,30.9,0002.3,0015.39,0007.82,0006.26
2022-08-20 04:30:00,,0829.2,5.00,0.00,29.8,28.6,00.0,38.6,31.7,31.7,0003.0,0015.48,0007.84,0006.27
2022-08-20 04:31:00,,0829.2,5.00,0.00,29.8,28.7,00.0,38.6,31.8,31.4,0002.7,0015.10,0007.95,0006.28
2022-08-20 04:32:00,,0829.4,5.00,0.00,29.9,28.8,00.0,38.6,31.8,30.4,0002.1,0014.87,0007.93,0006.28
2022-08-20 04:33:00,,0829.4,5.00,0.00,29.9,28.8,00.0,38.6,31.8,30.7,0001.6,0016.13,0007.87,0006.25
2022-08-20 04:34:00,,0829.5,5.00,0.00,29.9,28.9,00.0,38.6,31.9,30.1,0000.8,0016.57,0007.79,0006.23
2022-08-20 04:35:00,,0829.5,5.00,0.00,29.9,28.9,00.0,38.7,31.9,29.9,0000.5,0017.08,0007.72,0006.21
2022-08-20 04:36:00,,0829.5,5.00,0.00,30.0,29.0,00.0,38.7,32.0,28.4,0000.0,0017.49,0007.72,0006.18
2022-08-20 04:37:00,,0829.5,4.99,0.00,30.0,29.1,00.0,38.7,32.0,29.6,0000.0,0017.84,0007.69,0006.15
2022-08-20 04:38:00,,0829.5,5.00,0.00,30.0,29.1,00.0,38.7,32.0,30.7,0000.0,0018.21,0007.67,0006.13
2022-08-20 04:39:00,,0829.5,5.00,0.00,30.1,29.1,00.0,38.7,32.0,30.7,0000.0,0018.92,0007.62,0006.10
2022-08-20 04:40:00,,0829.5,5.01,0.00,30.1,28.6,00.0,38.7,31.8,30.6,0000.0,0018.80,0007.64,0006.10
2022-08-20 04:41:00,,0829.5,5.01,0.00,30.0,28.1,00.0,38.7,31.7,30.5,0000.0,0018.63,0007.61,0006.08
2022-08-20 04:42:00,,0829.5,4.99,0.00,29.9,27.9,00.0,38.7,31.6,32.0,0000.0,0018.39,0007.49,0006.08
2022-08-20 04:43:00,,0829.5,5.00,0.00,29.8,27.9,00.0,38.7,31.6,32.7,0000.0,0018.41,0007.44,0006.09
2022-08-20 04:44:00,,0829.5,5.00,0.00,29.8,28.0,00.0,38.7,31.6,33.9,0000.0,0017.38,0007.44,0006.10
2022-08-20 04:45:00,,0829.5,5.00,0.00,29.8,28.1,00.0,38.6,31.6,34.0,0000.0,0016.91,0007.45,0006.12
2022-08-20 04:46:00,,0829.5,5.00,0.00,29.8,28.2,00.0,38.6,31.6,33.7,0000.0,0015.91,0007.48,0006.13
2022-08-20 04:47:00,,0829.5,5.02,0.00,29.8,28.3,00.0,38.6,31.7,33.5,0000.0,0015.57,0007.50,0006.15
2022-08-20 04:48:00,,0829.5,4.99,0.00,29.8,28.4,00.0,38.6,31.7,33.0,0000.0,0015.12,0007.49,0006.15
2022-08-20 04:49:00,,0829.5,5.00,0.00,29.8,28.5,00.0,38.6,31.7,34.5,0000.0,0014.49,0007.49,0006.16
2022-08-20 04:50:00,,0829.5,5.01,0.00,29.9,28.6,00.0,38.7,31.8,34.7,0000.0,0014.16,0007.53,0006.18
2022-08-20 04:51:00,,0829.5,4.99,0.00,29.9,28.7,00.0,38.7,31.8,34.2,0000.0,0014.56,0007.55,0006.21
2022-08-20 04:52:00,,0829.5,4.98,0.00,29.9,28.8,00.0,38.7,31.8,34.1,0000.0,0014.52,0007.60,0006.24
2022-08-20 04:53:00,,0829.4,5.01,0.00,29.9,28.8,00.0,38.7,31.9,34.9,0000.0,0014.62,0007.67,0006.25
2022-08-20 04:54:00,,0829.4,5.00,0.00,30.0,28.9,00.0,38.7,31.9,34.4,0000.0,0014.65,0007.74,0006.25
2022-08-20 04:55:00,,0829.4,5.00,0.00,30.1,28.9,00.0,38.7,32.0,33.7,0000.0,0014.19,0007.75,0006.23
2022-08-20 04:56:00,,0829.5,5.00,0.00,30.2,29.0,00.0,38.7,32.0,32.8,0000.0,0013.71,0007.72,0006.19
2022-08-20 04:57:00,,0829.4,5.01,0.00,30.2,29.0,00.0,38.8,32.0,33.5,0000.0,0013.48,0007.64,0006.17
2022-08-20 04:58:00,,0829.4,4.99,0.00,30.2,28.9,00.0,38.8,32.0,32.6,0000.0,0013.56,0007.61,0006.15
2022-08-20 04:59:00,,0829.4,5.00,0.00,30.2,28.2,00.0,38.8,31.8,32.9,0000.0,0013.64,0007.61,0006.16
